#timestamp,LO_Frequency,Hit 
1497297615.2,286047043.9,N
1497297635.1,286047042.5,N
1497297636.0,286047042.5,N
1497297655.8,286047042.6,N
1497297675.6,286047039.8,N
1497297695.5,286047039.7,N
1497297715.3,286047039.7,N
1497297735.1,286047041.4,N
1497297755.9,286047041.3,N
1497297775.7,286047042.7,N
1497297795.6,286047040.3,N
1497297815.4,286047042.5,N
1497297835.2,286047043.2,N
1497297855.1,286047044.0,N
1497297856.0,286047044.0,N
1497297875.8,286047043.4,N
1497297895.6,286047043.1,N
1497297915.5,286047043.1,N
1497297935.3,286047044.3,N
1497297955.1,286047041.4,N
1497297975.9,286047043.8,N
1497297995.7,286047043.8,N
1497298015.6,286047044.4,N
1497298035.4,286047044.1,N
1497298055.2,286047045.2,N
1497298075.1,286047044.9,N
1497298076.0,286047044.9,N
1497298095.8,286047045.1,N
1497298115.6,286047045.7,N
1497298135.5,286047044.6,N
1497298155.3,286047047.2,N
1497298175.2,286047046.0,N
1497298195.9,286047042.9,N
1497298215.7,286047045.7,N
1497298235.6,286047046.0,N
1497298255.4,286047045.9,N
1497298275.2,286047045.4,N
1497298295.1,286047044.9,N
1497298296.0,286047044.9,N
1497298315.8,286047043.4,N
1497298335.7,286047045.9,N
1497298355.5,286047042.9,N
1497298375.3,286047045.5,N
1497298395.2,286047045.7,N
1497298415.0,286047047.0,N
1497298415.9,286047047.0,N
1497298435.7,286047047.3,N
1497298455.6,286047045.6,N
1497298475.4,286047043.3,N
1497298495.3,286047044.2,N
1497298515.1,286047044.2,N
1497298516.0,286047044.2,N
1497298535.8,286047043.4,N
1497298555.7,286047044.8,N
1497298575.5,286047045.2,N
1497298595.3,286047043.4,N
1497298615.2,286047043.6,N
1497298635.0,286047045.7,N
1497298635.9,286047045.7,N
1497298655.8,286047043.3,N
1497298675.6,286047043.1,N
1497298695.4,286047046.0,N
1497298715.3,286047045.7,N
1497298735.1,286047043.2,N
1497298755.8,286047043.8,N
1497298775.7,286047046.0,N
1497298795.5,286047043.4,N
1497298815.4,286047045.1,N
1497298835.2,286047045.2,N
1497298855.0,286047045.3,N
1497298855.9,286047045.3,N
1497298875.8,286047042.9,N
1497298895.6,286047044.1,N
1497298915.4,286047043.8,N
1497298935.3,286047043.0,N
1497298955.1,286047043.3,N
1497298975.9,286047046.0,N
1497298995.7,286047044.2,N
1497299015.5,286047043.4,N
1497299035.4,286047043.8,N
1497299055.2,286047044.3,N
1497299075.0,286047044.0,N
1497299075.9,286047044.0,N
1497299095.8,286047043.1,N
1497299115.6,286047046.0,N
1497299135.5,286047044.9,N
1497299155.3,286047045.4,N
1497299175.1,286047044.7,N
1497299195.9,286047045.8,N
1497299215.7,286047045.2,N
1497299235.5,286047045.7,N
1497299255.4,286047045.7,N
1497299275.2,286047046.0,N
1497299295.1,286047045.5,N
1497299296.0,286047045.5,N
1497299315.8,286047045.0,N
1497299335.6,286047045.6,N
1497299355.5,286047045.3,N
1497299375.3,286047045.5,N
1497299395.1,286047045.4,N
1497299415.9,286047045.5,N
1497299435.7,286047046.0,N
1497299455.6,286047047.4,N
1497299475.4,286047050.4,N
1497299495.2,286047046.6,N
1497299515.1,286047045.0,N
1497299516.0,286047045.0,N
1497299535.8,286047047.1,N
1497299555.6,286047047.4,N
1497299575.5,286047045.2,N
1497299595.3,286047042.9,N
1497299615.2,286047047.1,N
1497299635.9,286047045.3,N
1497299655.7,286047047.3,N
1497299675.6,286047046.4,N
1497299695.4,286047047.6,N
1497299715.2,286047045.1,N
1497299735.1,286047047.4,N
1497299736.0,286047047.4,N
1497299755.8,286047044.5,N
1497299775.7,286047045.0,N
1497299795.5,286047047.1,N
1497299815.3,286047047.1,N
1497299835.2,286047044.5,N
1497299855.0,286047047.1,N
1497299855.9,286047047.1,N
1497299875.8,286047044.7,N
1497299895.6,286047044.8,N
1497299915.4,286047044.7,N
1497299935.3,286047045.6,N
1497299955.1,286047043.7,N
1497299975.9,286047045.2,N
1497299995.7,286047044.8,N
1497300015.5,286047045.1,N
1497300035.4,286047045.7,N
1497300055.2,286047046.0,N
1497300075.0,286047045.9,N
1497300075.9,286047045.9,N
1497300095.8,286047045.9,N
1497300115.6,286047045.7,N
1497300135.5,286047044.7,N
1497300155.3,286047045.7,N
1497300175.1,286047045.6,N
1497300195.9,286047046.0,N
1497300215.7,286047045.8,N
1497300235.6,286047043.1,N
1497300255.4,286047045.7,N
1497300275.2,286047045.8,N
1497300295.1,286047042.9,N
1497300296.0,286047042.9,N
1497300315.8,286047047.6,N
1497300335.6,286047046.2,N
1497300355.5,286047047.4,N
1497300375.3,286047044.9,N
1497300395.2,286047045.2,Y
1497300415.9,286047001.7,N
1497300435.7,286047003.9,N
1497300455.6,286047001.7,N
1497300475.4,286047002.8,N
1497300495.3,286047000.1,N
1497300515.1,286047002.8,N
1497300516.0,286047002.8,N
1497300535.8,286047000.0,N
1497300555.7,286047002.2,N
1497300575.5,286047000.2,N
1497300595.3,286047000.2,N
1497300615.2,286047000.0,N
1497300635.0,286047002.4,N
1497300635.9,286047002.4,N
1497300655.8,286047001.6,N
1497300675.6,286047002.2,N
1497300695.4,286047000.4,N
1497300715.3,286047002.2,N
1497300735.1,286047004.4,N
1497300755.8,286047001.3,N
1497300775.7,286047002.3,N
1497300795.5,286047001.5,N
1497300815.4,286046999.7,N
1497300835.2,286047001.5,N
1497300855.0,286047002.5,N
1497300855.9,286047002.5,N
1497300875.8,286047002.3,N
1497300895.6,286046999.8,N
1497300915.4,286046999.8,N
1497300935.3,286046999.7,N
1497300955.1,286046999.8,N
1497300975.9,286047000.1,N
1497300995.7,286047000.2,N
1497301015.5,286046999.7,N
1497301035.4,286047002.1,N
1497301055.2,286046999.9,N
1497301075.0,286047001.8,N
1497301075.9,286047001.8,N
1497301095.8,286046999.8,N
1497301115.6,286047000.1,N
1497301135.5,286047002.7,N
1497301155.3,286047002.1,N
1497301175.1,286047003.6,N
1497301195.9,286047006.7,N
